Location: ??????
(56.0120°N, 39.1740°E)
Time: 06:00:06
(UTC+00:00)

Cosmos 332 Rocket - Pass Details

Date: 14 April 2026
Orbit: 672 x 693 km, 74.0° (Epoch: 10 May)

Event Time Altitude Azimuth Distance (km) Brightness Sun altitude
Rises 21:04:26 0° 332° (NNW) 3,077 8.2 -24.2°
Reaches altitude 10° 21:06:48 10° 336° (NNW) 2,154 7.3 -24.2°
Maximum altitude 21:11:36 60° 57° (ENE) 789 4.1 -24.3°
Enters shadow 21:12:26 52° 100° (E) 861 4.1 -24.3°
